{"data":{"norad_id":64041,"epoch":"2026-09-20T05:27:42.592320Z","epoch_age_seconds":167052,"freshness":"FRESH","line1":"1 64041U 25102V   26263.22757630  .00006626  00000+0  23455-3 0  9997","line2":"2 64041  70.0014 341.4953 0004563 273.7059  86.3595 15.29602528 74938","mean_motion":15.29602528,"eccentricity":0.0004563,"inclination_deg":70.0014,"raan_deg":341.4953,"arg_perigee_deg":273.7059,"mean_anomaly_deg":86.3595,"bstar":0.00023455,"rev_number":7493,"period_min":94.14210382372,"perigee_km":473.87159494601,"apogee_km":480.12759260148,"semimajor_km":6855.1365937737,"source":"CELESTRAK","updated_at":"2026-09-21T09:00:35.189740Z"}}